Southampton Airport

Airport
ICAO code: 
EGHI
IATA Code: 
SOU
Summary
ICAO Region: 
EUR
Territory: 
Location: 
Eastleigh,Southampton, England.,
Serving: 
Southampton
Elevation: 
44 ft
Coordinates: 
Aerial View: 
50° 56' 59.319" N, 1° 21' 23.389" W
Metar
Observation
EGHI 050650Z 32011KT 290V360 9999 VCSH FEW020 BKN038 06/03 Q1004
Station
Southampton / Weather Centre
Date/Time
2021-12-05 06:50:00
Wind direction
320°
Wind speed
11 kts
Lowest cloud amount
few clouds
Temperature
6°C
Dew point
3°C
Humidity
81%
QNH
1004 hPa
Weather condition
in vicinity: showers

Description

Small domestic and international airport serving the city of Southampton and environs; has co-located railway station.

Climatology

Temperate Marine climate/Oceanic climate (Köppen climate classification Cfb). Moderately cool summer and comparatively warm winter with a temperature range of only 14°C. Prevailing south-westerly winds from the Atlantic Ocean.

Runways

Designator Length Width Surface Rops
2/20 1723 37 ASP Yes/Yes
Airport map: 
Aerial View: 

SKYbrary Partners:

Safety knowledge contributed by: